[Date Prev][Date Next][Thread Prev][Thread Next] - [Date Index][Thread Index][Author Index]
2 Line ISS Keps 2-15
- Subject: [sarex] 2 Line ISS Keps 2-15
- From: "Dave Larsen PhD" <doc@xxxxxxxxxxx>
- Date: Wed, 15 Feb 2006 04:33:18 -0800
ISS
1 25544U 98067A 06046.37836806 .00010569 00000-0 75214-4 0 3535
2 25544 051.6424 093.9546 0007404 283.4791 255.2578 15.74496939413963
----
Via the sarex mailing list at AMSAT.ORG courtesy of AMSAT-NA.
To unsubscribe, send "unsubscribe sarex" to Majordomo@amsat.org
AMSAT Home